STARLINK-32483, 61856

Orbit data source: Space-Track

STARLINK-32483, 61856 is a payload satellite owned by SpaceX/Seattle (US) in LEO that was launched on Thu, 07 Nov 2024 UTC via an FALCON 9 launch vehicle from the Air Force Eastern Test Range (AFETR). Payload-class satellites include a variety of spacecraft equipped with specific instruments for various scientific and technological missions. These include communications satellites like Starlink; space stations such as the ISS; scientific satellites like the Hubble; Earth observation satellites from companies like Planet Labs, Umbra, and HawkEye 360; GPS; miniature CubeSats for education and research; and military/defense satellites.

Loading next visibility...
Identifier
61856, 2024-202M
Orbit
LEO
Country
Flag of USUS
Related business
Manufacturer
SpaceX/Seattle
Mission
Operational Commercial Communications
Bus & Motor
STARLINK V2M, Unknown motor
Mass
730 kg wet, ~700 kg dry
Launch date (UTC)
2024-11-07 (1 year ago)
Launch vehicle
FALCON 9
Launch site
Air Force Eastern Test Range (AFETR)
Object type
Payload
Rocket body
Debris
Shape & HBR
Box + 2 Pan, 17.7 m
Radar Cross Section
33.884 m², Large (>1 m²)

Expand to show TLE details & history
Last TLE update: 1 day ago

TLE from 1 day ago
0 STARLINK-32483
1 61856U 24202M   25309.02771697 -.00000227  00000-0  12707-5 0  9998
2 61856  43.0044 221.8994 0001372 259.2721 100.7976 15.27584172 56271
Epoch: 2025-11-05T00:39Z
TLE epoch observation values (Epoch: 2025-11-05T00:39:54.746Z)
Latitude
-0.00002°
Longitude
167.41499°
Altitude
482.989 km
Speed
7.626 km/s
True Right ascension
14h 47m 35s
True Declination
0° 00' 00"
Sunlit
Object was in daylight at epoch
Visualization orbit readout
Latitude
Unknown
Longitude
Unknown
Altitude
Unknown
Speed
Unknown
Apparent Right ascension
Unknown
Apparent Declination
Unknown
Sunlit
N/A
Visualization observer readout
Local Sidereal Time
21:48:13
Azimuth
Unknown
Elevation
Unknown
Doppler factor
Unknown
Orbital elements
Apogee altitude
485.923 km
Perigee altitude
484.039 km
Semi-major axis
6,863.118 km
Eccentricity
0.00014
Inclination
43.0044°
RAAN
221.8994°
Arg. of periapsis
259.2721°
True anomaly
100.81304°
Mean anomaly
100.7976°
Eccentric anomaly
100.80532°
Mean motion
3.81734 °/min
Orbital period
94.31 mins
BSTAR
0.0000012707
Loading maneuver chart data...
Computing Atmospheric mass density...
Loading historical data...
Loading historical data...
Loading historical data...
Loading historical data...
Loading historical data...
Loading historical data...
Loading historical data...

Documentation

Showing up to 5 results
|